RSC92V GCXO-GCLP

Flight info

Callsign RSC92V
Flight time 0h 25m
Altitude 14000
Route LALTO
Aircraft AT76/M-SDFGRY/LB1

Departure

Time 2026-05-04 13:28
Airport Tenerife Norte-Ciudad de La Laguna Airport (GCXO)

Arrival

Time 2026-05-04 13:54
Airport Gran Canaria Airport (GCLP)
Time Latitude Longitude Altitude Speed Heading
2026-05-04 13:04 28.48681 -16.34664 2067 ft 0 kts 21°
2026-05-04 13:23 28.48680 -16.34664 2067 ft 1 kts 21°
2026-05-04 13:23 28.48669 -16.34669 2068 ft 2 kts 21°
2026-05-04 13:23 28.48652 -16.34676 2068 ft 3 kts 21°
2026-05-04 13:24 28.48632 -16.34685 2069 ft 3 kts 21°
2026-05-04 13:24 28.48609 -16.34695 2069 ft 3 kts 21°
2026-05-04 13:24 28.48595 -16.34702 2070 ft 1 kts 13°
2026-05-04 13:25 28.48573 -16.34705 2071 ft 3 kts 346°
2026-05-04 13:25 28.48560 -16.34699 2071 ft 1 kts 307°
2026-05-04 13:25 28.48561 -16.34700 2071 ft 0 kts 306°
2026-05-04 13:25 28.48568 -16.34718 2071 ft 7 kts 292°
2026-05-04 13:26 28.48593 -16.34792 2075 ft 11 kts 290°
2026-05-04 13:26 28.48622 -16.34879 2079 ft 13 kts 290°
2026-05-04 13:26 28.48657 -16.34984 2081 ft 16 kts 290°
2026-05-04 13:26 28.48702 -16.35118 2078 ft 20 kts 291°
2026-05-04 13:27 28.48752 -16.35268 2073 ft 18 kts 288°
2026-05-04 13:27 28.48718 -16.35320 2077 ft 9 kts 161°
2026-05-04 13:27 28.48669 -16.35272 2080 ft 13 kts 129°
2026-05-04 13:27 28.48575 -16.35084 2085 ft 43 kts 111°
2026-05-04 13:28 28.48399 -16.34555 2065 ft 99 kts 111°
2026-05-04 13:28 28.48118 -16.33678 2220 ft 126 kts 108°
2026-05-04 13:28 28.47841 -16.32719 2698 ft 131 kts 108°
2026-05-04 13:28 28.47615 -16.31755 3274 ft 122 kts 96°
2026-05-04 13:29 28.47340 -16.30736 3386 ft 151 kts 113°
2026-05-04 13:29 28.46825 -16.29597 3557 ft 171 kts 116°
2026-05-04 13:29 28.46252 -16.28379 3922 ft 178 kts 115°
2026-05-04 13:29 28.45713 -16.27099 4327 ft 180 kts 114°
2026-05-04 13:30 28.45192 -16.25794 4663 ft 183 kts 113°
2026-05-04 13:30 28.44691 -16.24506 5178 ft 173 kts 114°
2026-05-04 13:30 28.44225 -16.23263 5556 ft 171 kts 113°
2026-05-04 13:30 28.43769 -16.22012 5889 ft 172 kts 114°
2026-05-04 13:31 28.43301 -16.20747 6194 ft 175 kts 115°
2026-05-04 13:31 28.42818 -16.19464 6475 ft 177 kts 115°
2026-05-04 13:31 28.42326 -16.18185 6782 ft 178 kts 116°
2026-05-04 13:31 28.41835 -16.16895 7073 ft 178 kts 115°
2026-05-04 13:32 28.41343 -16.15600 7377 ft 179 kts 115°
2026-05-04 13:32 28.40847 -16.14289 7638 ft 182 kts 116°
2026-05-04 13:32 28.40349 -16.12983 7927 ft 183 kts 116°
2026-05-04 13:32 28.39842 -16.11651 8218 ft 184 kts 116°
2026-05-04 13:33 28.39329 -16.10307 8410 ft 192 kts 116°
2026-05-04 13:33 28.38766 -16.08857 8449 ft 207 kts 117°
2026-05-04 13:33 28.38171 -16.07354 8689 ft 210 kts 117°
2026-05-04 13:33 28.37576 -16.05837 8934 ft 211 kts 117°
2026-05-04 13:34 28.36983 -16.04301 9182 ft 213 kts 117°
2026-05-04 13:34 28.36391 -16.02750 9421 ft 215 kts 117°
2026-05-04 13:34 28.35795 -16.01187 9661 ft 216 kts 117°
2026-05-04 13:34 28.35193 -15.99612 9891 ft 218 kts 117°
2026-05-04 13:35 28.34577 -15.98005 9994 ft 227 kts 117°
2026-05-04 13:35 28.33260 -15.94569 10069 ft 247 kts 117°
2026-05-04 13:35 28.32565 -15.92751 10079 ft 255 kts 117°
2026-05-04 13:36 28.31852 -15.90879 10081 ft 262 kts 117°
2026-05-04 13:36 28.31120 -15.88967 10083 ft 266 kts 117°
2026-05-04 13:36 28.30380 -15.87024 10074 ft 270 kts 117°
2026-05-04 13:36 28.29631 -15.85063 10079 ft 272 kts 117°
2026-05-04 13:37 28.28879 -15.83085 10081 ft 274 kts 116°
2026-05-04 13:37 28.28128 -15.81090 10081 ft 275 kts 116°
2026-05-04 13:37 28.27371 -15.79087 10081 ft 276 kts 117°
2026-05-04 13:37 28.26605 -15.77087 10085 ft 277 kts 117°
2026-05-04 13:38 28.25835 -15.75083 10081 ft 277 kts 117°
2026-05-04 13:38 28.25064 -15.73081 10083 ft 278 kts 117°
2026-05-04 13:38 28.24288 -15.71071 10083 ft 278 kts 117°
2026-05-04 13:38 28.23516 -15.69063 10084 ft 278 kts 117°
2026-05-04 13:39 28.22743 -15.67051 10088 ft 278 kts 117°
2026-05-04 13:39 28.21973 -15.65046 10087 ft 278 kts 117°
2026-05-04 13:39 28.21193 -15.63027 10089 ft 279 kts 117°
2026-05-04 13:39 28.20418 -15.61017 10089 ft 279 kts 117°
2026-05-04 13:40 28.19640 -15.58996 10089 ft 279 kts 117°
2026-05-04 13:40 28.18863 -15.56982 10087 ft 279 kts 117°
2026-05-04 13:40 28.18096 -15.54993 10087 ft 279 kts 117°
2026-05-04 13:40 28.17160 -15.53124 10088 ft 271 kts 134°
2026-05-04 13:41 28.15862 -15.51594 10089 ft 269 kts 142°
2026-05-04 13:41 28.14462 -15.50174 10087 ft 270 kts 143°
2026-05-04 13:41 28.13056 -15.48757 10080 ft 271 kts 143°
2026-05-04 13:42 28.10316 -15.45812 10079 ft 272 kts 140°
2026-05-04 13:42 28.08960 -15.44327 10076 ft 272 kts 141°
2026-05-04 13:42 28.07632 -15.42799 10074 ft 272 kts 138°
2026-05-04 13:42 28.06340 -15.41224 10070 ft 272 kts 137°
2026-05-04 13:43 28.05072 -15.39648 10073 ft 272 kts 137°
2026-05-04 13:43 28.03804 -15.38062 10074 ft 272 kts 136°
2026-05-04 13:43 28.02538 -15.36473 10074 ft 272 kts 136°
2026-05-04 13:43 28.01270 -15.34879 10074 ft 272 kts 136°
2026-05-04 13:44 28.00005 -15.33290 10075 ft 272 kts 136°
2026-05-04 13:44 27.98742 -15.31699 10075 ft 272 kts 136°
2026-05-04 13:44 27.97479 -15.30111 10075 ft 272 kts 136°
2026-05-04 13:44 27.96220 -15.28525 10075 ft 271 kts 136°
2026-05-04 13:45 27.94835 -15.27152 10073 ft 260 kts 158°
2026-05-04 13:45 27.93128 -15.26721 9888 ft 254 kts 189°
2026-05-04 13:45 27.91437 -15.27207 9508 ft 252 kts 203°
2026-05-04 13:45 27.89773 -15.27892 9125 ft 255 kts 205°
2026-05-04 13:46 27.88115 -15.28633 8749 ft 257 kts 205°
2026-05-04 13:46 27.86453 -15.29410 8380 ft 260 kts 206°
2026-05-04 13:46 27.84785 -15.30210 8010 ft 261 kts 206°
2026-05-04 13:46 27.83119 -15.31026 7651 ft 260 kts 206°
2026-05-04 13:47 27.81468 -15.31846 7295 ft 258 kts 206°
2026-05-04 13:47 27.79831 -15.32662 6932 ft 257 kts 207°
2026-05-04 13:47 27.78191 -15.33463 6585 ft 255 kts 207°
2026-05-04 13:47 27.76631 -15.34359 6214 ft 248 kts 221°
2026-05-04 13:48 27.75669 -15.35924 5848 ft 243 kts 251°
2026-05-04 13:48 27.75161 -15.37717 5489 ft 244 kts 254°
2026-05-04 13:48 27.74689 -15.39570 5134 ft 247 kts 255°
2026-05-04 13:48 27.74235 -15.41448 4761 ft 249 kts 256°
2026-05-04 13:49 27.73785 -15.43337 4385 ft 251 kts 256°
2026-05-04 13:49 27.73619 -15.45251 4017 ft 246 kts 282°
2026-05-04 13:49 27.74409 -15.46926 3649 ft 243 kts 319°
2026-05-04 13:49 27.75849 -15.47801 3288 ft 234 kts 350°
2026-05-04 13:50 27.77451 -15.48128 2931 ft 234 kts 354°
2026-05-04 13:50 27.79014 -15.47960 2704 ft 225 kts 25°
2026-05-04 13:50 27.80179 -15.46848 2645 ft 217 kts 48°
2026-05-04 13:50 27.81127 -15.45596 2579 ft 198 kts 48°
2026-05-04 13:51 27.82035 -15.44514 2299 ft 184 kts 42°
2026-05-04 13:51 27.82941 -15.43551 1927 ft 176 kts 40°
2026-05-04 13:51 27.83948 -15.42850 1727 ft 160 kts 23°
2026-05-04 13:51 27.84960 -15.42377 1644 ft 156 kts 24°
2026-05-04 13:52 27.86878 -15.41443 1288 ft 148 kts 23°
2026-05-04 13:52 27.87816 -15.41025 1026 ft 142 kts 21°
2026-05-04 13:52 27.88708 -15.40629 849 ft 131 kts 19°
2026-05-04 13:53 27.89505 -15.40285 710 ft 117 kts 22°
2026-05-04 13:53 27.90256 -15.39971 461 ft 110 kts 22°
2026-05-04 13:53 27.90954 -15.39655 317 ft 110 kts 20°
2026-05-04 13:54 27.92339 -15.39027 73 ft 93 kts 19°
2026-05-04 13:54 27.92743 -15.38857 62 ft 38 kts 20°
2026-05-04 13:54 27.93190 -15.38725 62 ft 26 kts 353°
2026-05-04 13:55 27.93322 -15.38744 69 ft 11 kts 349°
2026-05-04 13:55 27.93377 -15.38755 72 ft 0 kts 349°
2026-05-04 13:56 27.93440 -15.38741 71 ft 15 kts 25°
2026-05-04 13:56 27.93504 -15.38715 73 ft 1 kts 347°
2026-05-04 13:56 27.93536 -15.38782 76 ft 9 kts 288°
2026-05-04 13:57 27.93537 -15.38786 75 ft 0 kts 290°